Presure
135 113 125 97 139 130 132 113 117 142 157 107 96 146 100 148 141 95 101 141 139 101 97 93 94 100 95 95 85 95 95 96 97 100 123 136 155 159 120 119 151 92 78
140 95 106 104 104 102 101 123 138 123 109 130 142 112 109 148 110 92 90 91 89 94 95 92 99 96 91 135 123 102 94 100 109 164 162 109 111 128 156 160 160 151 79
134 144 108 129 129 107 130 136 133 135 151 122 126 114 120 116 126 108 169 100 156 107 98 163 172 168 101 98 158 97 129 150 101 148 125 105 88 154 150 141 146 83 142
139 145 148 102 109 100 110 141 110 109 126 133 114 128 104 141 151 153 149 166 167 173 148 180 179 144 103 157 101 114 167 149 162 157 130 158 157 153 149 147 142 104 116
163 146 108 178 142 125 122 124 119 133 114 112 122 118 121 161 155 169 153 166 158 171 162 146 167 180 131 101 144 145 153 157 153 136 136 142 97 160 156 152 123 149 83
134 152 154 95 97 110 106 104 103 137 99 95 106 102 118 115 133 147 122 128 148 139 149 162 187 145 138 159 184 177 167 152 149 142 142 147 142 178 96 160 157 153 154
123 127 134 130 105 107 120 96 98 134 100 125 108 126 125 108 113 146 141 162 172 148 148 154 157 181 177 158 166 181 183 183 179 180 177 152 179 132 79 97 156 79 84
133 132 184 174 138 116 138 115 130 132 126 116 119 100 157 105 111 116 130 145 144 145 156 151 158 172 161 180 177 173 171 174 178 179 138 90 92 101 129 163 129 89 82
182 175 117 180 182 130 126 102 103 97 105 120 130 135 115 130 143 107 124 138 145 148 139 148 142 153 162 155 124 173 162 167 156 91 90 88 92 129 107 172 148 98 150
179 190 185 175 191 134 123 125 122 122 98 126 126 123 131 126 137 140 141 157 140 137 172 159 163 154 151 157 168 173 169 153 80 88 83 78 87 88 79 168 137 179 178
192 181 186 173 179 161 144 126 125 122 98 131 127 149 122 127 143 136 150 132 134 165 137 173 148 171 173 103 115 86 86 113 92 69 78 93 76 85 171 168 189 188 175
91 164 190 185 185 181 128 161 181 191 185 145 154 177 173 171 148 142 162 150 161 164 136 162 169 171 150 85 85 161 88 87 88 78 114 173 81 181 185 181 179 178 178
87 92 95 128 174 180 182 175 174 175 135 125 163 181 176 176 181 184 170 171 164 162 161 161 164 123 85 87 77 77 64 85 86 141 100 171 184 182 171 176 177 179 178
191 213 178 188 94 153 107 181 180 166 173 180 181 176 165 133 134 171 179 173 175 166 163 165 98 88 85 83 82 89 85 100 75 91 124 174 182 181 169 163 163 170 178
109 203 137 112 185 143 132 100 131 154 138 177 175 174 171 175 173 178 173 173 169 96 102 125 117 88 85 65 73 84 110 81 176 121 181 167 175 169 173 172 159 162 174
176 184 208 125 168 107 128 92 95 96 100 101 102 102 130 176 127 171 167 164 168 94 97 107 88 90 85 83 139 110 88 139 177 158 180 171 165 167 153 159 173 154 172
170 96 90 117 182 206 89 101 158 100 99 101 102 155 108 100 165 101 100 129 115 94 101 172 86 93 91 88 165 78 143 152 184 183 175 150 167 160 150 154 161 180 175
197 183 182 192 196 192 201 201 83 100 102 102 93 96 97 96 114 97 98 77 86 157 93 89 93 93 93 84 161 108 95 155 183 161 145 148 156 178 179 179 177 183 186
209 214 203 184 185 193 199 200 195 150 91 115 97 101 126 130 124 91 103 119 96 139 159 94 127 90 96 131 88 140 168 167 147 158 156 171 176 173 178 182 189 184 182
217 199 206 226 194 189 202 202 195 183 185 190 179 123 90 103 101 102 140 97 165 116 95 143 161 75 141 92 91 152 161 177 154 161 178 177 174 181 183 189 188 189 197
219 260 222 122 205 191 187 185 179 182 191 187 182 185 97 97 94 92 95 87 177 164 161 94 82 95 96 173 178 179 182 176 178 181 181 175 177 187 189 199 198 153 168
182 162 155 190 216 208 202 188 125 188 185 180 190 184 182 180 114 157 118 116 168 187 174 95 93 116 172 176 180 179 176 181 178 177 183 192 194 186 192 189 182 180 173
196 187 177 183 181 170 223 207 193 190 187 182 184 183 182 186 186 184 147 128 148 141 179 164 182 182 179 180 182 185 180 178 180 189 184 189 180 174 169 163 175 171 177
198 191 192 188 177 180 175 184 216 189 191 190 187 186 183 179 186 185 181 189 189 189 185 182 182 186 184 186 189 189 187 167 168 179 190 180 177 187 182 191 185 186 176
201 200 197 190 189 183 181 182 176 211 201 197 188 190 182 179 186 184 189 186 185 185 186 184 181 181 182 183 177 171 188 189 181 197 178 178 179 182 179 178 182 182 182
204 199 199 194 189 186 179 182 180 180 174 175 176 179 184 189 191 188 194 192 189 188 185 190 193 193 194 194 194 187 193 193 181 174 174 174 177 180 176 183 186 180 188
Wind_Speed
29 24 26 20 28 27 26 21 19 23 23 19 16 20 16 20 19 18 18 18 19 20 18 17 17 17 16 16 12 17 17 18 20 22 27 32 39 40 27 28 40 23 24
33 21 25 25 23 21 20 24 26 22 19 21 23 21 21 22 19 19 19 18 18 20 19 19 21 19 19 22 22 22 19 23 26 34 35 28 29 32 41 42 42 41 27
36 38 27 31 33 23 30 32 30 28 29 24 25 23 22 23 23 23 23 22 23 23 23 23 24 24 23 21 27 22 27 30 27 33 30 29 22 40 42 40 42 32 42
42 43 42 26 29 23 27 34 25 23 27 28 24 26 25 27 27 26 26 24 25 24 25 25 26 25 26 29 26 27 34 33 36 36 34 41 42 43 44 44 44 37 40
47 46 29 48 42 35 34 32 29 33 27 27 29 27 26 32 27 30 28 27 27 26 27 26 27 29 30 27 29 32 33 33 34 31 31 35 33 46 48 47 42 49 39
43 51 51 25 26 32 28 27 26 37 26 24 27 27 30 28 30 31 29 30 31 31 31 29 29 32 32 32 32 35 39 35 36 35 37 41 39 43 39 51 53 53 56
41 42 45 43 30 32 38 26 27 38 29 36 30 36 35 28 29 36 34 33 32 33 34 34 34 32 31 34 34 36 38 38 40 40 42 45 44 42 29 43 48 43 49
51 49 51 52 49 38 46 36 41 40 40 35 35 28 43 29 32 34 37 38 37 37 36 38 35 33 36 34 35 37 39 39 39 40 40 36 39 42 46 49 49 52 50
55 53 35 54 53 46 44 36 37 31 34 43 44 45 39 39 43 32 38 43 42 41 39 42 41 41 40 39 39 39 42 42 43 33 35 40 44 48 50 51 52 53 54
56 54 53 53 53 48 46 46 45 44 33 44 45 44 46 45 46 46 46 42 45 43 39 45 44 46 44 44 43 42 44 45 34 37 39 41 48 50 49 52 54 53 54
59 58 56 56 58 56 51 50 48 46 37 48 47 51 46 49 51 48 48 48 47 46 47 41 49 42 44 31 34 30 33 41 40 33 43 49 46 47 53 55 48 48 55
33 52 58 56 57 57 53 55 54 52 55 56 54 52 52 51 55 53 49 50 50 48 49 49 45 44 42 29 32 47 38 39 41 44 49 50 56 51 49 51 51 53 53
36 39 38 46 59 59 59 62 59 57 51 49 51 53 53 49 46 44 48 47 48 52 52 53 51 44 32 33 30 33 27 39 42 50 54 53 52 51 53 52 53 54 55
67 66 62 64 37 53 43 61 61 58 57 55 54 54 53 54 54 51 46 48 47 52 55 54 33 32 34 33 34 43 44 46 45 55 55 52 53 53 57 60 61 58 56
29 65 52 48 65 52 49 41 48 53 49 59 58 56 56 54 52 48 49 50 52 32 34 43 43 37 37 26 35 43 51 48 58 59 59 54 55 58 57 59 65 65 62
72 73 68 43 57 45 55 38 40 39 42 41 41 41 49 57 46 54 56 57 57 36 38 43 34 39 37 41 53 55 50 58 59 61 61 59 58 60 66 68 64 71 65
71 48 49 52 66 72 40 50 64 46 45 46 45 56 45 43 56 42 40 48 48 39 44 60 38 45 44 46 59 47 61 61 59 61 60 66 63 66 71 72 71 67 67
84 79 77 76 70 70 71 70 33 49 51 50 40 42 43 44 49 44 45 24 32 61 40 38 45 47 45 45 61 57 67 59 63 59 69 70 70 68 68 70 69 70 70
83 79 83 78 75 76 71 70 70 60 41 43 46 50 55 56 52 40 52 54 47 57 61 47 53 45 56 58 52 63 64 62 65 66 68 67 69 70 72 73 76 73 72
91 82 89 78 82 76 76 73 70 69 71 71 71 57 41 56 53 54 58 51 62 55 51 58 64 41 59 60 59 64 65 68 66 68 72 73 71 76 78 80 78 78 80
82 86 95 42 87 75 72 71 70 72 74 73 70 73 51 52 49 45 50 40 70 64 65 53 46 64 67 70 73 71 71 69 73 76 78 74 77 82 81 83 82 75 77
83 71 61 79 87 88 81 76 45 74 72 69 72 74 76 76 55 66 60 57 67 75 72 56 57 58 72 74 74 72 71 74 75 77 79 82 83 81 82 81 79 79 80
84 84 85 78 75 75 85 81 79 74 74 75 76 75 74 76 78 78 63 57 62 62 75 70 77 77 76 75 74 75 74 75 78 82 79 82 79 77 77 79 80 82 84
84 86 86 81 79 76 79 77 80 76 78 77 73 74 75 73 76 76 76 81 81 80 78 78 80 82 79 77 77 78 77 74 75 78 82 80 81 84 84 88 87 88 86
93 92 90 86 83 80 79 81 77 81 79 76 77 77 75 74 76 75 78 79 80 81 81 82 82 80 75 74 70 73 78 80 80 86 81 83 85 86 86 87 91 93 92
97 95 93 88 86 82 83 82 82 79 76 78 77 74 75 78 76 74 80 81 81 84 84 89 90 87 85 83 84 78 82 83 81 80 83 84 86 90 87 95 97 92 100
Wind_Direction
250 237 240 241 240 246 245 246 250 260 259 246 240 271 243 275 272 243 252 275 272 259 258 256 257 263 257 262 276 270 273 280 283 286 275 265 259 259 275 274 266 303 317
251 240 238 240 242 248 247 254 253 250 251 259 266 256 256 277 255 242 250 251 252 256 255 253 263 259 253 263 279 276 273 287 285 257 258 288 287 276 263 263 264 269 306
253 251 238 241 247 244 246 250 254 254 261 255 258 257 261 265 270 258 279 252 276 260 259 269 265 263 270 268 262 276 270 267 284 269 274 286 293 265 268 271 271 308 274
256 253 252 238 244 245 250 248 251 248 259 259 260 263 263 273 277 278 277 277 275 277 275 273 268 271 275 264 278 275 259 264 261 264 275 265 265 268 269 271 274 288 284
255 253 247 255 248 249 251 251 255 253 252 256 264 260 264 275 276 277 277 275 277 275 275 272 270 266 272 277 274 273 270 268 269 276 276 274 290 266 268 270 282 271 297
255 251 251 246 245 247 244 244 245 254 254 256 254 255 265 266 275 277 276 280 279 280 280 274 270 277 280 274 268 265 265 272 273 277 279 276 279 273 293 268 267 269 270
246 250 252 249 250 251 247 253 253 254 253 259 254 266 267 262 267 279 278 276 271 276 281 277 275 269 266 276 274 268 271 272 270 272 271 271 275 279 295 287 274 309 295
253 251 250 251 250 252 252 252 252 254 255 260 262 253 270 261 265 270 277 279 278 279 277 279 275 269 274 269 268 268 269 269 272 274 281 292 291 289 282 277 283 289 300
251 248 252 248 249 252 254 253 253 258 259 259 265 270 264 270 274 264 273 278 279 279 279 280 281 279 277 280 275 273 276 274 279 291 291 292 290 285 288 282 285 302 290
253 248 245 249 247 250 252 253 252 254 262 259 263 266 271 271 276 276 277 274 279 280 270 279 276 281 283 281 275 274 275 282 298 291 296 302 295 296 303 284 291 285 285
249 250 248 247 247 253 252 254 255 254 260 262 263 264 267 271 274 275 273 278 280 274 283 271 283 275 273 278 279 284 286 289 289 304 302 294 302 303 284 284 287 286 285
253 250 250 250 248 250 256 253 252 248 249 262 262 255 258 261 270 273 269 274 274 274 283 277 274 275 277 278 282 280 284 287 289 296 293 287 301 284 285 286 287 286 287
252 253 250 250 248 249 249 252 252 251 258 262 255 255 257 258 259 258 265 266 269 272 272 276 275 279 274 276 292 295 299 291 289 291 294 290 289 286 283 287 286 288 286
252 247 248 248 254 249 251 250 251 254 255 253 254 256 260 266 269 264 262 264 266 269 272 273 262 266 275 283 287 288 291 294 303 299 291 290 290 287 285 286 288 288 289
251 246 249 249 245 250 249 254 252 250 251 253 255 257 260 260 261 261 264 265 265 260 267 270 270 269 279 295 293 290 288 296 287 292 288 288 290 289 287 287 289 288 291
251 250 242 257 249 260 258 259 256 256 258 257 258 262 261 260 265 263 264 267 268 262 265 268 269 275 279 285 285 290 293 292 286 291 289 290 288 287 289 288 288 292 291
253 260 266 263 251 241 265 255 257 257 256 257 258 263 260 263 264 265 263 266 267 266 270 273 272 276 281 285 285 291 292 292 287 288 290 288 287 287 291 290 290 295 293
245 249 252 249 246 249 243 243 262 258 255 256 262 256 259 261 263 263 264 273 272 271 273 275 274 278 285 286 286 294 298 289 290 283 290 290 287 293 294 295 294 297 299
238 236 239 249 250 246 245 244 246 250 261 260 264 261 260 260 263 266 266 268 272 273 274 276 279 285 288 286 292 291 285 287 287 288 287 290 293 292 295 296 298 297 296
236 241 242 238 248 249 244 246 247 250 250 249 254 260 266 263 265 267 266 270 269 274 277 276 276 290 281 293 295 282 285 290 286 288 294 294 294 297 297 297 297 297 297
234 232 236 254 244 248 249 250 248 248 249 251 253 254 266 269 270 272 272 274 269 272 273 280 289 287 291 284 283 285 288 292 294 294 294 294 294 295 295 296 297 294 294
242 247 245 244 240 243 245 248 249 249 251 254 253 253 255 258 266 265 271 271 270 271 272 284 286 283 279 280 283 287 290 291 290 289 291 294 295 294 296 297 297 296 295
237 241 245 244 244 248 244 244 247 249 251 251 252 254 257 259 262 265 272 274 273 275 274 277 277 277 278 281 284 286 287 287 288 291 292 294 294 293 291 291 294 294 296
235 238 240 242 243 243 247 246 243 247 248 250 254 256 257 259 262 265 268 269 273 274 274 276 277 278 279 283 284 285 288 287 287 291 293 294 294 298 297 299 299 299 296
235 236 236 238 239 240 243 245 245 242 246 250 252 253 257 259 261 263 266 268 271 274 276 276 274 277 281 284 286 285 288 290 290 291 294 294 296 298 298 299 300 300 299
230 236 238 236 238 239 240 244 246 246 249 251 254 255 257 258 262 265 265 267 270 272 274 274 274 278 281 283 285 288 290 290 291 293 293 294 297 299 299 300 299 297 300